FW2111 Weather Reports


Display with metric or nautical units.
time (UTC)temp
F
wind
direction
speed
MPH
gust
MPH
rain 1hr
in
rain 24hr
in
rain mn
in
humidity
%
barometer
mb
20260509024227 58 101 2.0 11.0 0.00 0.00 0.00 24 1001.7
20260509023702 59 275 3.0 11.0 0.00 0.00 0.00 24 1001.8
20260509023158 59 96 5.0 12.0 0.00 0.00 0.00 24 1001.7
20260509022632 59 275 3.0 12.0 0.00 0.00 0.00 23 1001.7
20260509022341 59 277 4.0 12.0 0.00 0.00 0.00 23 1001.6
20260509021605 60 297 5.0 12.0 0.00 0.00 0.00 23 1001.5
20260509021106 59 216 4.0 10.0 0.00 0.00 0.00 23 1001.3
20260509020539 59 300 2.0 9.0 0.00 0.00 0.00 24 1001.3
20260509020246 58 310 1.0 6.0 0.00 0.00 0.00 25 1001.1
20260509015513 59 265 1.0 5.0 0.00 0.00 0.00 25 1001.1
20260509014946 59 260 0.0 5.0 0.00 0.00 0.00 24 1000.9
20260509014443 60 250 0.0 2.0 0.00 0.00 0.00 24 1000.9
20260509013919 60 251 0.0 2.0 0.00 0.00 0.00 23 1000.8
20260509013414 60 251 1.0 5.0 0.00 0.00 0.00 22 1000.8
20260509012911 61 250 2.0 5.0 0.00 0.00 0.00 22 1000.8
20260509012614 61 259 4.0 9.0 0.00 0.00 0.00 21 1000.8
20260509012114 61 252 4.0 9.0 0.00 0.00 0.00 21 1000.7
20260509011325 62 296 4.0 9.0 0.00 0.00 0.00 20 1000.8
20260509010826 62 33 5.0 11.0 0.00 0.00 0.00 20 1000.7
20260509010300 62 273 4.0 13.0 0.00 0.00 0.00 19 1000.8
20260509005757 62 300 4.0 12.0 0.00 0.00 0.00 18 1000.8
20260509005240 63 329 4.0 12.0 0.00 0.00 0.00 16 1000.8
20260509004738 63 269 3.0 8.0 0.00 0.00 0.00 16 1000.7
20260509004238 63 250 2.0 8.0 0.00 0.00 0.00 16 1000.6
20260509003720 63 267 2.0 7.0 0.00 0.00 0.00 15 1000.6
20260509003202 63 248 3.0 8.0 0.00 0.00 0.00 15 1000.5
20260509002641 64 218 2.0 8.0 0.00 0.00 0.00 14 1000.6
20260509002123 64 270 3.0 8.0 0.00 0.00 0.00 15 1000.6
20260509001611 64 277 3.0 8.0 0.00 0.00 0.00 14 1000.6
20260509001107 64 292 4.0 13.0 0.00 0.00 0.00 15 1000.7
20260509000610 64 294 5.0 13.0 0.00 0.00 0.00 14 1000.7
20260509000048 64 190 4.0 10.0 0.00 0.00 0.00 14 1000.7
20260508235524 64 294 2.0 11.0 0.00 0.00 0.00 15 1000.7
20260508235000 64 313 3.0 11.0 0.00 0.00 0.00 15 1000.7
20260508234501 64 304 4.0 11.0 0.00 0.00 0.00 14 1000.8
20260508233959 64 332 4.0 11.0 0.00 0.00 0.00 14 1000.8
20260508233501 64 294 6.0 13.0 0.00 0.00 0.00 14 1000.8
20260508232936 64 194 8.0 15.0 0.00 0.00 0.00 14 1000.8
20260508232435 64 225 8.0 17.0 0.00 0.00 0.00 14 1000.9
20260508232200 64 326 5.0 17.0 0.00 0.00 0.00 13 1000.9
20260508231816 64 275 5.0 11.0 0.00 0.00 0.00 15 1001.1
20260508231659 64 265 5.0 10.0 0.00 0.00 0.00 15 1001.1
20260508230633 64 280 5.0 11.0 0.00 0.00 0.00 15 1001.2
20260508225840 64 277 5.0 11.0 0.00 0.00 0.00 15 1001.2
20260508225315 64 0 4.0 12.0 0.00 0.00 0.00 15 1001.3
20260508224750 64 340 5.0 15.0 0.00 0.00 0.00 15 1001.3
20260508224223 64 206 6.0 15.0 0.00 0.00 0.00 15 1001.3
20260508223721 64 217 7.0 18.0 0.00 0.00 0.00 15 1001.5
20260508223154 64 252 8.0 15.0 0.00 0.00 0.00 15 1001.4
20260508222627 64 271 6.0 21.0 0.00 0.00 0.00 14 1001.4
20260508222103 64 188 5.0 21.0 0.00 0.00 0.00 14 1001.4
20260508221536 64 252 7.0 15.0 0.00 0.00 0.00 15 1001.4
20260508221032 64 257 8.0 17.0 0.00 0.00 0.00 14 1001.5
20260508220531 64 195 10.0 17.0 0.00 0.00 0.00 15 1001.5
20260508220002 64 240 8.0 16.0 0.00 0.00 0.00 14 1001.6
20260508215500 64 189 6.0 14.0 0.00 0.00 0.00 14 1001.7
20260508214933 64 261 7.0 18.0 0.00 0.00 0.00 13 1001.6
20260508214430 64 205 7.0 18.0 0.00 0.00 0.00 13 1001.7
20260508213903 64 259 6.0 14.0 0.00 0.00 0.00 13 1001.7
20260508213400 65 218 6.0 14.0 0.00 0.00 0.00 14 1001.7
20260508212834 65 271 5.0 12.0 0.00 0.00 0.00 13 1001.8
20260508212309 65 232 6.0 13.0 0.00 0.00 0.00 14 1001.8
20260508211742 65 242 8.0 20.0 0.00 0.00 0.00 13 1001.9
20260508211214 64 201 10.0 20.0 0.00 0.00 0.00 14 1001.8
20260508210942 64 234 8.0 17.0 0.00 0.00 0.00 14 1001.9
20260508210146 64 191 6.0 15.0 0.00 0.00 0.00 14 1002.0
20260508205619 64 286 7.0 23.0 0.00 0.00 0.00 14 1002.1
20260508205116 64 294 10.0 23.0 0.00 0.00 0.00 13 1002.4
20260508204550 64 191 7.0 22.0 0.00 0.00 0.00 13 1002.3
20260508204515 63 209 6.0 12.0 0.00 0.00 0.00 14 1002.5
20260508204119 63 202 6.0 12.0 0.00 0.00 0.00 14 1002.4
20260508203008 62 258 5.0 14.0 0.00 0.00 0.00 14 1002.6
20260508202442 61 257 3.0 14.0 0.00 0.00 0.00 16 1002.8
20260508201916 60 139 3.0 5.0 0.00 0.00 0.00 20 1002.8
20260508201349 59 151 4.0 9.0 0.00 0.00 0.00 20 1003.0
20260508200846 59 155 4.0 9.0 0.00 0.00 0.00 20 1003.1
20260508200320 59 142 5.0 10.0 0.00 0.00 0.00 22 1003.2
20260508195754 59 195 4.0 10.0 0.00 0.00 0.00 19 1003.3
20260508195226 60 159 3.0 5.0 0.00 0.00 0.00 18 1003.5
20260508194929 60 144 3.0 8.0 0.00 0.00 0.00 17 1003.5
20260508194130 60 178 4.0 8.0 0.00 0.00 0.00 17 1003.6
20260508193627 61 197 4.0 8.0 0.00 0.00 0.00 18 1003.7
20260508193124 61 165 5.0 11.0 0.00 0.00 0.00 18 1003.7
20260508192853 61 183 4.0 11.0 0.00 0.00 0.00 19 1003.9
20260508192056 61 123 2.0 8.0 0.00 0.00 0.00 19 1003.8
20260508191800 59 86 3.0 9.0 0.00 0.00 0.00 20 1004.0
20260508191022 59 166 3.0 9.0 0.00 0.00 0.00 20 1004.1
20260508190751 60 175 3.0 7.0 0.00 0.00 0.00 18 1004.2
20260508190016 59 76 4.0 8.0 0.00 0.00 0.00 20 1004.2
20260508185514 58 154 4.0 8.0 0.00 0.00 0.00 22 1004.3
20260508184947 58 163 4.0 8.0 0.00 0.00 0.00 22 1004.2
20260508184444 58 129 4.0 8.0 0.00 0.00 0.00 21 1004.3
20260508183916 59 178 4.0 7.0 0.00 0.00 0.00 22 1004.4
20260508183416 59 197 4.0 7.0 0.00 0.00 0.00 20 1004.5
20260508182857 59 144 4.0 7.0 0.00 0.00 0.00 22 1004.5
20260508182359 58 161 4.0 8.0 0.00 0.00 0.00 23 1004.7
20260508181854 58 174 4.0 9.0 0.00 0.00 0.00 20 1004.7
20260508181357 58 161 4.0 9.0 0.00 0.00 0.00 20 1004.8
20260508181104 58 211 6.0 10.0 0.00 0.00 0.00 23 1004.8
20260508180305 58 273 6.0 10.0 0.00 0.00 0.00 22 1004.9
20260508175802 57 219 6.0 10.0 0.00 0.00 0.00 23 1005.0
20260508175234 57 134 6.0 10.0 0.00 0.00 0.00 25 1005.0
20260508175003 57 178 5.0 10.0 0.00 0.00 0.00 23 1005.2
20260508174204 57 193 4.0 10.0 0.00 0.00 0.00 23 1005.3
20260508173637 56 166 4.0 10.0 0.00 0.00 0.00 27 1005.5
20260508173135 56 163 4.0 10.0 0.00 0.00 0.00 26 1005.6
20260508172632 55 165 4.0 9.0 0.00 0.00 0.00 29 1005.7
20260508172344 56 190 3.0 9.0 0.00 0.00 0.00 26 1005.7
20260508171610 55 204 3.0 9.0 0.00 0.00 0.00 28 1005.8
20260508171106 55 198 5.0 11.0 0.00 0.00 0.00 26 1005.9
20260508170604 55 208 6.0 11.0 0.00 0.00 0.00 27 1006.0
20260508170100 56 203 6.0 10.0 0.00 0.00 0.00 26 1005.9
20260508165558 56 175 7.0 15.0 0.00 0.00 0.00 26 1006.0
20260508165031 57 160 6.0 15.0 0.00 0.00 0.00 23 1006.1
20260508164528 57 154 4.0 8.0 0.00 0.00 0.00 26 1006.1
20260508164004 57 150 5.0 8.0 0.00 0.00 0.00 26 1006.1
20260508163438 56 156 5.0 10.0 0.00 0.00 0.00 27 1006.3
20260508162914 55 118 4.0 10.0 0.00 0.00 0.00 28 1006.4
20260508162352 54 213 3.0 7.0 0.00 0.00 0.00 30 1006.7
20260508161844 54 157 3.0 7.0 0.00 0.00 0.00 30 1006.6
20260508161344 54 135 2.0 5.0 0.00 0.00 0.00 31 1006.8
20260508160843 54 132 2.0 5.0 0.00 0.00 0.00 33 1006.8
20260508160323 53 178 2.0 5.0 0.00 0.00 0.00 31 1006.9
20260508155814 53 155 3.0 7.0 0.00 0.00 0.00 31 1006.9
20260508155312 53 136 4.0 9.0 0.00 0.00 0.00 34 1006.8
20260508154811 53 146 4.0 9.0 0.00 0.00 0.00 32 1006.9
20260508154310 53 107 3.0 7.0 0.00 0.00 0.00 34 1007.1
20260508154043 52 137 4.0 9.0 0.00 0.00 0.00 33 1007.1
20260508153313 53 165 4.0 9.0 0.00 0.00 0.00 34 1007.0
20260508152811 53 88 4.0 12.0 0.00 0.00 0.00 36 1007.0
20260508152251 52 171 5.0 12.0 0.00 0.00 0.00 34 1007.0
20260508151742 50 122 6.0 10.0 0.00 0.00 0.00 39 1007.1
20260508151518 50 221 6.0 11.0 0.00 0.00 0.00 37 1007.2
20260508150742 50 210 6.0 11.0 0.00 0.00 0.00 37 1007.3
20260508150223 49 184 5.0 10.0 0.00 0.00 0.00 41 1007.4
20260508145659 49 191 3.0 8.0 0.00 0.00 0.00 40 1007.4
20260508145140 49 151 4.0 10.0 0.00 0.00 0.00 42 1007.4
20260508144643 48 177 6.0 11.0 0.00 0.00 0.00 41 1007.4
20260508144411 49 169 5.0 11.0 0.00 0.00 0.00 39 1007.6
20260508143910 49 169 4.0 10.0 0.00 0.00 0.00 40 1007.4
20260508143141 48 178 3.0 7.0 0.00 0.00 0.00 42 1007.7
20260508142821 47 130 3.0 7.0 0.00 0.00 0.00 43 1007.8
20260508142658 47 144 2.0 7.0 0.00 0.00 0.00 43 1007.8
20260508141519 47 163 3.0 7.0 0.00 0.00 0.00 44 1007.8
20260508141018 46 163 1.0 6.0 0.00 0.00 0.00 46 1007.9
20260508140517 45 168 1.0 4.0 0.00 0.00 0.00 46 1007.9
20260508135955 44 168 1.0 4.0 0.00 0.00 0.00 46 1008.0
20260508135425 44 168 2.0 5.0 0.00 0.00 0.00 44 1008.0
20260508134925 44 169 1.0 5.0 0.00 0.00 0.00 43 1008.0
20260508134359 44 169 1.0 4.0 0.00 0.00 0.00 43 1008.0
20260508133856 44 169 2.0 4.0 0.00 0.00 0.00 41 1008.1
20260508133352 44 165 2.0 4.0 0.00 0.00 0.00 43 1008.1
20260508133058 42 163 1.0 4.0 0.00 0.00 0.00 44 1008.1
20260508132307 42 191 2.0 3.0 0.00 0.00 0.00 45 1008.2
20260508131800 42 192 2.0 4.0 0.00 0.00 0.00 45 1008.3
20260508131525 43 193 2.0 4.0 0.00 0.00 0.00 44 1008.2
20260508130749 43 194 2.0 4.0 0.00 0.00 0.00 43 1008.2
20260508130247 43 198 2.0 4.0 0.00 0.00 0.00 42 1008.1
20260508125743 43 204 1.0 3.0 0.00 0.00 0.00 41 1008.2
20260508125215 43 205 0.0 3.0 0.00 0.00 0.00 42 1008.2
20260508124945 42 211 0.0 0.0 0.00 0.00 0.00 44 1008.3
20260508124209 42 212 0.0 1.0 0.00 0.00 0.00 44 1008.2
20260508123707 41 212 0.0 2.0 0.00 0.00 0.00 43 1008.3
20260508123156 41 215 1.0 3.0 0.00 0.00 0.00 43 1008.2
20260508122654 41 217 0.0 3.0 0.00 0.00 0.00 43 1008.2
20260508122125 41 217 1.0 3.0 0.00 0.00 0.00 42 1008.2
20260508121622 41 220 1.0 3.0 0.00 0.00 0.00 42 1008.1
20260508121057 41 238 0.0 2.0 0.00 0.00 0.00 39 1008.0
20260508120529 41 240 0.0 1.0 0.00 0.00 0.00 39 1008.0
20260508120026 41 240 0.0 2.0 0.00 0.00 0.00 39 1008.0
20260508115501 41 240 1.0 7.0 0.00 0.00 0.00 38 1007.9
20260508115204 41 240 1.0 7.0 0.00 0.00 0.00 37 1008.0
20260508114431 41 271 0.0 1.0 0.00 0.00 0.00 39 1007.9
20260508114136 41 271 0.0 5.0 0.00 0.00 0.00 38 1007.9
20260508113337 41 271 1.0 5.0 0.00 0.00 0.00 36 1008.0
20260508113106 42 271 3.0 9.0 0.00 0.00 0.00 34 1008.0
20260508112307 43 285 5.0 9.0 0.00 0.00 0.00 32 1008.0
20260508111739 42 266 5.0 9.0 0.00 0.00 0.00 32 1007.9
20260508111236 42 266 5.0 9.0 0.00 0.00 0.00 32 1007.9
20260508110711 42 280 6.0 9.0 0.00 0.00 0.00 33 1007.9
20260508110158 41 280 6.0 9.0 0.00 0.00 0.00 34 1007.9
20260508105701 40 279 5.0 8.0 0.00 0.00 0.00 35 1008.0
20260508105135 40 276 5.0 8.0 0.00 0.00 0.00 35 1008.0
20260508104610 40 269 6.0 9.0 0.00 0.00 0.00 36 1007.9
20260508104041 40 264 6.0 9.0 0.00 0.00 0.00 37 1007.9
20260508103538 39 273 5.0 8.0 0.00 0.00 0.00 39 1007.9
20260508103012 37 280 5.0 8.0 0.00 0.00 0.00 41 1008.0
20260508102507 37 283 5.0 8.0 0.00 0.00 0.00 42 1008.0
20260508102004 36 282 5.0 6.0 0.00 0.00 0.00 44 1008.0
20260508101940 34 283 4.0 6.0 0.00 0.00 0.00 47 1008.1
20260508100913 34 282 4.0 6.0 0.00 0.00 0.00 48 1008.2
20260508100345 33 286 4.0 4.0 0.00 0.00 0.00 49 1008.3
20260508095841 33 290 3.0 4.0 0.00 0.00 0.00 49 1008.2
20260508095337 32 292 4.0 4.0 0.00 0.00 0.00 49 1008.3
20260508094809 32 296 3.0 4.0 0.00 0.00 0.00 49 1008.2
20260508094307 31 299 3.0 4.0 0.00 0.00 0.00 50 1008.2
20260508094034 31 294 3.0 4.0 0.00 0.00 0.00 50 1008.3
20260508093301 31 290 3.0 4.0 0.00 0.00 0.00 50 1008.3
20260508092733 31 291 4.0 5.0 0.00 0.00 0.00 51 1008.4
20260508092230 31 292 3.0 5.0 0.00 0.00 0.00 50 1008.4
20260508091704 31 299 3.0 4.0 0.00 0.00 0.00 51 1008.5
20260508091201 31 306 2.0 3.0 0.00 0.00 0.00 51 1008.5
20260508090633 31 306 2.0 3.0 0.00 0.00 0.00 50 1008.6
20260508090108 31 306 2.0 3.0 0.00 0.00 0.00 49 1008.6
20260508085610 32 306 2.0 4.0 0.00 0.00 0.00 49 1008.6
20260508085606 31 306 2.0 4.0 0.00 0.00 0.00 49 1008.7
20260508084535 32 304 2.0 3.0 0.00 0.00 0.00 48 1008.6
20260508084303 32 299 2.0 5.0 0.00 0.00 0.00 48 1008.6
20260508083738 32 299 3.0 5.0 0.00 0.00 0.00 48 1008.7
20260508082941 33 298 4.0 5.0 0.00 0.00 0.00 49 1008.7
20260508082419 33 299 3.0 4.0 0.00 0.00 0.00 47 1008.8
20260508082414 33 306 4.0 5.0 0.00 0.00 0.00 47 1008.7
20260508081408 33 313 3.0 4.0 0.00 0.00 0.00 48 1008.8
20260508080907 33 312 3.0 4.0 0.00 0.00 0.00 48 1008.9
20260508080339 33 307 3.0 4.0 0.00 0.00 0.00 49 1008.9
20260508075837 33 307 3.0 4.0 0.00 0.00 0.00 49 1009.0
20260508075309 33 308 3.0 4.0 0.00 0.00 0.00 48 1009.0
20260508074744 33 302 3.0 4.0 0.00 0.00 0.00 47 1009.1
20260508074220 33 302 4.0 5.0 0.00 0.00 0.00 47 1009.1
20260508073717 33 300 4.0 5.0 0.00 0.00 0.00 47 1009.1
20260508073216 33 290 3.0 5.0 0.00 0.00 0.00 47 1009.2
20260508072719 33 306 3.0 4.0 0.00 0.00 0.00 47 1009.1
20260508072428 34 302 3.0 4.0 0.00 0.00 0.00 46 1009.2
20260508071657 35 299 3.0 4.0 0.00 0.00 0.00 44 1009.1
20260508071130 35 300 3.0 4.0 0.00 0.00 0.00 44 1009.2
20260508070629 35 306 3.0 3.0 0.00 0.00 0.00 44 1009.3
20260508070114 34 306 3.0 4.0 0.00 0.00 0.00 46 1009.4
20260508070107 35 311 3.0 4.0 0.00 0.00 0.00 44 1009.3
20260508065109 34 305 3.0 4.0 0.00 0.00 0.00 47 1009.5
20260508064611 34 309 3.0 4.0 0.00 0.00 0.00 46 1009.5
20260508064048 35 309 3.0 4.0 0.00 0.00 0.00 46 1009.5
20260508063549 35 309 3.0 4.0 0.00 0.00 0.00 45 1009.6
20260508063029 35 306 3.0 4.0 0.00 0.00 0.00 45 1009.7
20260508062511 35 305 3.0 4.0 0.00 0.00 0.00 44 1009.8
20260508062507 35 304 3.0 4.0 0.00 0.00 0.00 45 1009.7
20260508061945 35 305 3.0 4.0 0.00 0.00 0.00 45 1009.7
20260508060918 36 304 3.0 4.0 0.00 0.00 0.00 44 1009.7
20260508060629 36 305 3.0 4.0 0.00 0.00 0.00 44 1009.8
20260508055835 36 306 3.0 4.0 0.00 0.00 0.00 44 1009.8
20260508055318 36 305 3.0 4.0 0.00 0.00 0.00 44 1009.9
20260508054801 35 304 3.0 4.0 0.00 0.00 0.00 45 1009.8
20260508054301 36 303 3.0 4.0 0.00 0.00 0.00 45 1009.9
20260508053739 36 304 3.0 4.0 0.00 0.00 0.00 45 1009.9
20260508053240 36 302 4.0 5.0 0.00 0.00 0.00 44 1010.0
20260508053012 37 294 4.0 5.0 0.00 0.00 0.00 42 1010.0
20260508052238 37 294 3.0 5.0 0.00 0.00 0.00 42 1010.1
20260508051739 37 302 3.0 4.0 0.00 0.00 0.00 42 1010.1
20260508051212 37 301 2.0 3.0 0.00 0.00 0.00 43 1010.0
20260508050945 37 298 2.0 3.0 0.00 0.00 0.00 44 1010.1
20260508050151 37 298 1.0 2.0 0.00 0.00 0.00 42 1010.1
20260508045651 38 298 1.0 3.0 0.00 0.00 0.00 41 1010.0
20260508045151 38 298 1.0 3.0 0.00 0.00 0.00 40 1010.0
20260508044650 40 298 1.0 3.0 0.00 0.00 0.00 38 1010.0
20260508044133 40 298 2.0 3.0 0.00 0.00 0.00 35 1009.9
20260508043636 41 298 3.0 4.0 0.00 0.00 0.00 35 1010.0
20260508043113 41 297 3.0 5.0 0.00 0.00 0.00 34 1010.1
20260508042555 43 300 3.0 5.0 0.00 0.00 0.00 32 1010.1
20260508042308 43 299 4.0 5.0 0.00 0.00 0.00 30 1010.1
20260508041537 44 309 4.0 5.0 0.00 0.00 0.00 30 1010.1
20260508041038 43 306 3.0 5.0 0.00 0.00 0.00 31 1010.1
20260508040515 43 305 4.0 5.0 0.00 0.00 0.00 31 1010.1
20260508040242 43 304 3.0 5.0 0.00 0.00 0.00 31 1010.1
20260508035512 44 304 4.0 5.0 0.00 0.00 0.00 30 1010.1
20260508034952 45 302 4.0 5.0 0.00 0.00 0.00 28 1010.2
20260508034430 45 305 4.0 7.0 0.00 0.00 0.00 28 1010.2
20260508033905 46 304 4.0 7.0 0.00 0.00 0.00 27 1010.1
20260508033344 46 326 4.0 7.0 0.00 0.00 0.00 27 1010.2
20260508032838 46 309 4.0 7.0 0.00 0.00 0.00 27 1010.1
20260508032338 46 300 4.0 7.0 0.00 0.00 0.00 27 1010.2
20260508031836 46 305 4.0 7.0 0.00 0.00 0.00 27 1010.1
20260508031338 46 311 4.0 7.0 0.00 0.00 0.00 27 1010.1
20260508030814 45 304 4.0 7.0 0.00 0.00 0.00 28 1010.1
20260508030311 45 301 4.0 8.0 0.00 0.00 0.00 28 1010.1
20260508030021 47 303 4.0 8.0 0.00 0.00 0.00 26 1010.1
20260508025232 47 304 4.0 7.0 0.00 0.00 0.00 26 1010.1
20260508024711 46 300 4.0 5.0 0.00 0.00 0.00 26 1010.0